Location: Bremen
(53.0793°N, 8.8017°E)
Time: 01:06:39
(UTC+01:00)

Vanguard 2 Rocket - All Passes

Search period start: 28 November 2021 00:00
Search period end: 08 December 2021 00:00
Orbit: 555 x 3324 km, 32.9° (Epoch: 27 November)

Date Brightness Start Highest point End Pass type
(mag) Time Alt. Az. Time Alt. Az. Time Alt. Az.
28 Nov - 01:40:59 10° WSW 01:51:55 22° SSW 02:04:44 10° S visible
28 Nov - 20:16:18 10° SSW 20:23:37 24° SSE 20:34:11 10° ESE visible
28 Nov - 22:26:56 10° SW 22:36:50 31° S 22:51:08 10° SE visible
29 Nov - 00:40:12 10° WSW 00:51:07 25° SSW 01:04:55 10° SSE night (unlit)
29 Nov - 03:00:48 10° SW 03:05:04 11° SW 03:09:31 10° SSW visible
29 Nov - 19:18:32 10° S 19:24:02 18° SSE 19:31:27 10° ESE visible
29 Nov - 21:27:54 10° SW 21:36:29 29° S 21:49:13 10° ESE visible
29 Nov - 23:40:06 10° WSW 23:50:23 27° SSW 00:04:17 10° SSE night (unlit)
30 Nov - 01:56:25 10° WSW 02:04:31 15° SW 02:13:44 10° S visible
30 Nov - 18:22:22 10° SSE 18:24:48 11° SE 18:27:34 10° SE visible
30 Nov - 20:29:17 10° SW 20:36:29 25° SSE 20:47:04 10° ESE visible
30 Nov - 22:40:31 10° WSW 22:49:49 28° S 23:03:04 10° SE visible
01 Dec - 00:54:48 10° WSW 01:03:55 19° SSW 01:15:03 10° S night (unlit)
01 Dec - 19:31:07 10° SSW 19:36:50 20° SSE 19:44:46 10° ESE visible
01 Dec - 21:41:21 10° SW 21:49:30 27° S 22:01:29 10° SE visible
01 Dec - 23:54:16 10° WSW 00:03:19 22° SSW 00:15:08 10° SSE night (unlit)
02 Dec - 18:33:48 10° S 18:37:29 14° SSE 18:42:05 10° ESE visible
02 Dec - 20:42:33 10° SW 20:49:29 25° S 20:59:40 10° SE visible
02 Dec - 22:54:25 10° WSW 23:02:51 24° SSW 23:14:29 10° SSE visible
03 Dec - 01:11:02 10° SW 01:16:42 13° SSW 01:23:09 10° SSW night (unlit)
03 Dec - 19:44:09 10° SSW 19:49:46 21° SSE 19:57:43 10° ESE visible
03 Dec - 21:55:04 10° SW 22:02:35 24° S 22:13:20 10° SE visible
04 Dec - 00:09:18 10° WSW 00:16:16 16° SSW 00:24:48 10° S night (unlit)
04 Dec - 18:46:18 10° S 18:50:21 16° SSE 18:55:37 10° SE visible
04 Dec - 20:56:06 10° SW 21:02:35 23° S 21:11:54 10° SE visible
04 Dec - 23:08:54 10° SW 23:15:55 18° SSW 23:25:03 10° SSE night (unlit)
05 Dec - 17:50:34 10° SSE 17:51:11 10° SSE 17:51:50 10° SE visible
05 Dec - 19:57:30 10° SW 20:02:50 20° S 20:10:19 10° SE visible
05 Dec - 22:09:12 10° SW 22:15:44 19° SSW 22:24:33 10° SSE visible
06 Dec - 18:59:20 10° SSW 19:03:23 16° SSE 19:08:39 10° SE visible
06 Dec - 21:10:01 10° SW 21:15:45 19° S 21:23:38 10° SSE visible
06 Dec - 23:24:53 10° SW 23:29:01 12° SSW 23:33:47 10° S night (unlit)
07 Dec - 18:02:05 10° S 18:04:08 12° SSE 18:06:27 10° SE visible
07 Dec - 20:11:13 10° SW 20:16:01 18° S 20:22:30 10° SE visible
07 Dec - 22:24:15 10° SW 22:28:54 14° SSW 22:34:37 10° S visible
